Regional Weather Roundup
Issued by NWS Bismarck, ND

Home | Current Version | Previous Version | Text Only | Print | Product List | Glossary On
Versions: 1 2 3 4 5 6 7 8 9 10 11 12 13 14 15 16 17 18 19 20 21 22 23 24 25 26 27 28 29 30 31 32 33 34 35 36 37 38 39 40 41 42 43 44 45 46 47 48 49 50
000
ASUS43 KBIS 210620
RWRBIS

NWR BROADCAST TEXT
NATIONAL WEATHER SERVICE BISMARCK ND
100 AM CDT THU AUG 21 2014

NOTE: "FAIR" INDICATES FEW OR NO CLOUDS BELOW 12,000 FEET WITH NO
SIGNIFICANT WEATHER AND/OR OBSTRUCTIONS TO VISIBILITY.


CITY           SKY/WX    TMP DP  RH WIND       PRES   REMARKS
WILLISTON      CLEAR     62  60  93 CALM      29.80R
MINOT          LGT RAIN  64  62  93 N10       29.76S
MINOT AFB      DRIZZLE   64  64 100 NE8       29.76F
BISMARCK       MOCLDY    69  68  96 CALM      29.73S
DICKINSON      CLEAR     60  59  96 W5        29.80S
GARRISON         N/A     66  65  96 NE5       29.76S
HETTINGER ARPT CLEAR     57  55  93 W7        29.83R
JAMESTOWN      LGT RAIN  70  69  97 E23G31    29.66F
BEACH            N/A     55  55 100 CALM      29.85R
CARRINGTON     FAIR      68  68 100 SE7       29.73S
CROSBY         CLOUDY    64  64 100 CALM      29.80F FOG
HARVEY         FAIR      68  68 100 SE5       29.74R
HAZEN          CLOUDY    64  64 100 CALM      29.77R
LINTON         CLOUDY    66  66 100 W5        29.71F
MANDAN         MOCLDY    66  66 100 NW6       29.75S FOG
RUGBY          LGT RAIN  68  68 100 N5        29.75S
STANLEY        FAIR      63  63 100 NW3       29.79S
TIOGA          FAIR      57  57 100 W3        29.83S
WATFORD CITY   FAIR      57  57 100 S3        29.79R
$$

CITY           SKY/WX    TMP DP  RH WIND       PRES   REMARKS
GRAND FORKS    FAIR      71  66  84 SE9       29.78F
GRAND FORKS AF FAIR      70  70  99 SE9       29.78F
DEVILS LAKE    MOCLDY    72  64  78 SE14      29.72F
FARGO          FAIR      72  67  84 E8        29.75F
CANDO          CLOUDY    70  68  94 SE8       29.75F
CAVALIER       FAIR      68  66  94 SE6       29.77F
GRAFTON        FAIR      68  66  94 SE9       29.77F
GWINNER        CLOUDY    72  72 100 CALM      29.76R
LANGDON        FAIR      72  66  83 SE9       29.78S
ROLLA          CLOUDY    66  66 100 N8        29.80S
WALHALLA         N/A     68  68 100 SE7       29.77F
$$

CITY           SKY/WX    TMP DP  RH WIND       PRES   REMARKS
ABERDEEN       TSTM      65  65 100 NE10      29.73S FOG
MOBRIDGE       PTCLDY    65  64  97 CALM      29.68F
BUFFALO          N/A     62  57  83 NW6       29.79R
RAPID CITY     CLEAR     63  57  81 N9        29.84R
GLASGOW        MOCLDY    66  59  78 NW9       29.83S
SIDNEY           N/A    N/A N/A N/A MISG        N/A
WOLF POINT     CLEAR     62  54  74 CALM      29.82R
GLENDIVE       CLEAR     61  55  82 W9        29.84R
MILES CITY     CLEAR     61  50  67 NW6       29.84R
BAKER          CLEAR     60  56  86 CALM      29.85R
$$

CITY           SKY/WX    TMP DP  RH WIND       PRES   REMARKS
BILLINGS       CLOUDY    61  57  87 S8        29.93R
GREAT FALLS    LGT RAIN  55  54  94 W5        30.00R
REGINA         PTCLDY    59  57  94 N8        29.82S
ESTEVAN        FOG      N/A N/A N/A NW5         N/A  VSB 1/8
$$



USA.gov is the U.S. government's official web portal to all federal, state and local government web resources and services.